Weather in Cabarroguis

Philippines     16°34′30″N   121°33′19″E
temp.,
°C
wind,
m/s
gust,
m/s
humid.,
%
clouds,
%
prec.,
mm/h
press.,
hPa
HPBL,
m
20 may, fri
fri2023:00+22sw2395100 1.1 101369
02:00+22ssw129696 3.1 101042
05:00+22sw119497 0.0 101029
08:00+25sw018032 0.0 1011308
11:00+30s0366100 1.1 10101069
14:00+31wsw255679 2.3 10071421
17:00+24wsw1287100 0.8 100853
20:00+23sse1192100 1.6 101025
21 may, sat
sat2123:00+22w1192100 0.0 101026
02:00+22wsw1190100 0.0 100817
05:00+22sw1189100 0.0 100814
08:00+24nnw0182100 0.0 1009174
11:00+31ne235674 0.0 10081243
14:00+30e1169100 1.2 1005677
17:00+25w1187100 4.6 100614
20:00+23ene1298100 12.8 100869
22 may, sun
sun2223:00+23s1299100 13.2 100998
02:00+22wsw0097100 15.0 100717
05:00+22w009740 0.3 100713
08:00+25ne108899 0.3 1008411
11:00+28ene117570 0.9 1007835
14:00+29ese117590 4.1 1005872
17:00+25wnw1193100 8.4 100531
20:00+23wsw1197100 11.1 100842
23 may, mon
mon2323:00+23w1197100 1.8 100925
02:00+23wnw1198100 5.3 100729
05:00+22w0099100 2.1 100830
08:00+24ssw0193100 2.1 1009254
11:00+29nne126975 0.1 1008885
14:00+30e1270100 3.4 1006758
17:00+27sse1187100 4.9 100643
20:00+24ssw1193100 5.8 100938
24 may, tue
tue2423:00+23sw1196100 2.1 101025
02:00+22sse009953 4.8 101021
05:00+22ssw119855 0.1 101020
08:00+26sse0184100 0.1 1011439
11:00+31ne136191 0.1 10091278
14:00+31ssw1259100 1.5 10071310
17:00+28s1282100 2.6 100757
20:00+24ssw2392100 4.4 101065